Weather observations for the past three days for
Newark, Newark Heath Airport
Metric (Imperial)
Date Time (edt) Wind (kph) Vis. (km) Weather Sky Cond. Temperature (ºC) Relative Humidity Wind Chill (°C) Heat Index (°C) Pressure Precipitation (cm)
Air Dwpt 6 hour altimeter (cm) sea level (mb) 1 hr 3 hr 6 hr
Max. Min.
13 07:54 Calm 16.09 A Few Clouds FEW070 21.1 20 21.1 18.3 93% 76.66 1021.2
13 06:54 Calm 0.40 Fog VV004 18.9 18.3 96% 76.63 1021.1
13 05:49 Calm 4.83 Fog/Mist CLR 18.9 18.3 96% 76.61 1020.5
13 04:54 Calm 2.01 Fog/Mist FEW003 19.4 18.9 97% 76.58 1020.0
13 03:54 Calm 1.61 Fog/Mist VV004 19.4 18.9 97% 76.53 1019.5
13 02:54 Calm 0.80 Fog VV003 20 18.9 93% 76.53 1019.5
13 01:54 Calm 2.01 Fog/Mist CLR 20 19.4 26.7 20 96% 76.56 1019.9
13 00:54 Calm 9.66 Fog/Mist CLR 21.1 20 93% 76.56 1019.9
12 23:54 Calm 8.05 Fog/Mist CLR 21.7 20.6 94% 76.56 1019.9
12 22:54 Calm 14.48 Fair CLR 22.2 20.6 91% 76.53 1019.5
12 21:54 N 6 16.09 Fair CLR 23.3 20.6 85% 76.5 1019.1
12 20:54 Calm 16.09 Mostly Cloudy BKN110 25.6 20 71% 27 76.48 1018.9
12 19:54 NW 7 16.09 Mostly Cloudy BKN100 26.1 18.9 32.8 26.1 65% 27 76.5 1019.2
12 18:54 N 13 G 30 16.09 Partly Cloudy FEW060 SCT100 27.2 18.9 61% 28 76.45 1018.7
12 17:54 Calm 16.09 Fair CLR 31.7 16.7 41% 32 76.43 1018.1
12 16:54 W 6 16.09 Fair CLR 32.2 17.2 41% 33 76.43 1018.3
12 15:54 SW 13 16.09 A Few Clouds FEW055 32.2 16.7 39% 32 76.45 1018.5
12 14:54 Calm 16.09 Partly Cloudy SCT050 30.6 17.2 45% 31 76.48 1019.0
12 13:54 Calm 16.09 Partly Cloudy FEW050 SCT060 30 16.7 31.1 21.1 45% 30 76.53 1019.4
12 12:54 S 9 16.09 Fair CLR 30.6 17.2 45% 31 76.58 1020.2
12 11:54 Vrbl 7 16.09 Fair CLR 28.9 18.3 53% 30 76.61 1020.5
12 10:54 SE 15 16.09 Partly Cloudy SCT060 27.2 17.8 57% 28 76.58 1020.3
12 09:54 SE 6 16.09 Mostly Cloudy BKN060 25.6 17.8 62% 27 76.58 1020.2
12 08:54 Vrbl 6 16.09 Mostly Cloudy BKN065 BKN110 24.4 17.8 67% 25 76.56 1019.9
12 07:54 Calm 16.09 Mostly Cloudy BKN110 21.1 18.3 21.1 16.7 84% 76.53 1019.6
12 06:54 Calm 16.09 A Few Clouds FEW110 18.9 17.2 90% 76.5 1019.4
12 05:54 Calm 14.48 Fair CLR 17.8 16.7 93% 76.48 1018.9
12 04:54 Calm 16.09 Partly Cloudy SCT120 17.8 16.7 93% 76.45 1018.5
12 03:54 Calm 14.48 Fair CLR 17.2 16.7 97% 76.45 1018.5
12 02:54 Calm 4.02 Fog/Mist CLR 17.8 17.2 96% 76.45 1018.7
12 01:54 Calm 16.09 Fair CLR 18.3 17.2 27.8 17.8 93% 76.48 1018.9
12 00:54 Calm 16.09 Fair CLR 18.3 17.2 93% 76.48 1018.8
11 23:54 Calm 16.09 Fair CLR 18.9 17.8 93% 76.45 1018.6
11 22:54 Calm 16.09 Fair CLR 20.6 17.8 84% 76.43 1018.3
11 21:54 Calm 16.09 Fair CLR 21.7 17.2 76% 76.4 1018.0
11 20:54 Calm 16.09 Fair CLR 24.4 17.2 64% 25 76.4 1017.8
11 19:54 N 7 16.09 Fair CLR 27.8 16.1 30 27.8 49% 28 76.38 1017.7
11 18:54 Calm 16.09 Fair CLR 28.9 15 43% 29 76.35 1017.5
11 17:54 N 9 16.09 Fair CLR 29.4 15 42% 29 76.35 1017.2
11 16:54 W 7 16.09 Fair CLR 28.9 14.4 41% 29 76.35 1017.3
11 15:54 Calm 16.09 A Few Clouds FEW047 28.9 16.1 46% 29 76.35 1017.4
11 14:54 Calm 16.09 Mostly Cloudy BKN046 28.9 16.1 46% 29 76.38 1017.6
11 13:54 W 13 16.09 Partly Cloudy SCT043 28.3 16.1 28.3 19.4 48% 29 76.4 1017.7
11 12:54 Vrbl 6 16.09 Fair CLR 27.2 16.1 51% 28 76.4 1018.1
11 11:54 N 11 16.09 Fair CLR 26.7 15.6 51% 27 76.4 1018.0
11 10:54 Vrbl 7 16.09 Fair CLR 25 16.1 58% 26 76.38 1017.7
11 09:54 NW 13 16.09 Fair CLR 23.9 16.1 62% 25 76.4 1017.9
11 08:54 Calm 16.09 Fair CLR 21.7 16.7 73% 76.4 1017.9
11 07:54 Calm 16.09 Fair CLR 18.9 16.1 18.9 14.4 84% 76.35 1017.6
11 06:54 Calm 16.09 NULL NULL 15 14.4 96% 76.3 1016.9
11 05:54 Calm 16.09 Fair CLR 15 13.9 93% 76.28 1016.5
11 04:54 W 6 16.09 Fair CLR 16.1 14.4 90% 76.23 1015.9
11 03:54 W 7 16.09 Fair CLR 16.7 15 90% 76.2 1015.4
11 02:54 W 6 16.09 Partly Cloudy SCT041 17.2 15 87% 76.17 1015.1
11 01:54 W 6 16.09 Partly Cloudy SCT044 SCT055 18.3 15.6 21.1 18.3 84% 76.17 1015.1
11 00:54 W 15 16.09 Fair CLR 19.4 15.6 79% 76.15 1014.7
10 23:54 W 9 16.09 A Few Clouds FEW055 18.9 16.1 84% 76.1 1013.9
10 22:54 Calm 16.09 Mostly Cloudy BKN047 20 16.7 81% 76.07 1013.5
10 21:54 W 6 16.09 Overcast SCT034 OVC050 20.6 16.1 76% 76.05 1013.2
10 20:54 W 22 G 39 16.09 Overcast BKN038 OVC060 21.1 16.1 73% 76 1012.4
10 19:54 W 11 16.09 Overcast SCT023 BKN035 OVC045 20 17.8 23.3 19.4 87% 75.95 1011.8 0.05 0.2
10 18:54 W 19 16.09 Overcast SCT012 BKN033 OVC042 20 17.8 87% 75.9 1011.1 0.1
10 17:54 W 26 12.87 Light Rain FEW021 BKN034 OVC042 20 17.2 84% 75.82 1010.1
10 16:54 W 15 G 44 16.09 Light Rain FEW022 BKN029 OVC036 21.7 18.3 81% 75.72 1008.5 0.03 0.05
10 15:54 SW 30 G 44 6.44 Fog/Mist BKN013 BKN022 OVC034 21.1 18.9 87% 75.64 1007.5 0.03
10 14:54 SW 30 G 57 4.83 Light Rain FEW013 BKN020 OVC028 21.1 18.3 84% 75.59 1006.9
10 13:54 SW 31 G 52 16.09 Overcast BKN023 BKN028 OVC034 22.8 17.8 25 21.7 74% 75.54 1006.4 0.03
10 12:54 S 22 G 41 16.09 Overcast BKN024 OVC028 22.2 17.8 76% 75.49 1005.7
10 11:54 SW 35 G 52 9.66 Light Rain and Breezy FEW019 BKN038 OVC047 22.8 19.4 81% 75.46 1005.3 0.03
10 10:54 SW 30 G 56 16.09 Overcast FEW022 BKN037 OVC046 23.3 18.9 76% 75.44 1004.8
10 09:54 S 33 G 50 11.27 Overcast and Breezy FEW017 BKN030 OVC042 24.4 19.4 74% 25 75.39 1004.2
10 08:54 S 24 G 37 16.09 Mostly Cloudy BKN020 BKN046 24.4 20.6 79% 25 75.41 1004.4
Date Time (edt) Wind (kph) Vis. (km) Weather Sky Cond. Air Dwpt Max. Min. Relative Humidity Wind Chill (°C) Heat Index (°C) altimeter (cm) sea level (mb) 1 hr 3 hr 6 hr
6 hour
Temperature (ºC) Pressure Precipitation (cm)